Tracking 29892 objects as of 21-Nov-2024
HD Live streaming from Space Station
objects crossing your sky now

NOAA 16 DEB

Track NOAA 16 DEB now!
10-day predictions


NORAD ID: 41210
Int'l Code: 2000-055DP
Perigee: 825.3 km
Apogee: 857.6 km
Inclination: 98.7 °
Period: 101.6 minutes
Semi major axis: 7212 km
RCS: Unknown
Launch date: September 21, 2000
Source: United States (US)
Launch site: AIR FORCE WESTERN TEST RANGE (AFWTR)

Note: This is SATELLITE DEBRIS
Your satellite tracking list
Your tracking list is empty




NASA's NSSDC Master Catalog

Two Line Element Set (TLE):
1 41210U 00055DP  24324.37336083  .00004335  00000-0  21586-2 0  9995
2 41210  98.7166  16.4172 0022400 342.4164  17.6233 14.17345297461208
Source of the keplerian elements: AFSPC